TimeEST,TemperatureF,Dew PointF,Humidity,Sea Level PressureIn,VisibilityMPH,Wind Direction,Wind SpeedMPH,Gust SpeedMPH,PrecipitationIn,Events,Conditions,WindDirDegrees,DateUTC
12:56 AM,39.0,32.0,76,30.21,10.0,ESE,6.9,-,N/A,,Overcast,110,2013-02-26 05:56:00
1:56 AM,39.0,30.9,73,30.24,10.0,SSE,3.5,-,N/A,,Overcast,160,2013-02-26 06:56:00
2:17 AM,39.2,30.2,70,30.24,10.0,ESE,3.5,-,N/A,,Overcast,110,2013-02-26 07:17:00
2:56 AM,37.9,30.0,73,30.25,10.0,ESE,3.5,-,N/A,,Overcast,110,2013-02-26 07:56:00
3:56 AM,37.9,30.9,76,30.25,10.0,Calm,Calm,-,N/A,,Overcast,0,2013-02-26 08:56:00
4:23 AM,37.4,30.2,75,30.24,10.0,East,3.5,-,N/A,,Overcast,90,2013-02-26 09:23:00
4:53 AM,37.4,30.2,75,30.25,10.0,Calm,Calm,-,N/A,,Overcast,0,2013-02-26 09:53:00
4:56 AM,37.0,30.9,79,30.25,10.0,Calm,Calm,-,N/A,,Overcast,0,2013-02-26 09:56:00
5:24 AM,37.4,30.2,75,30.25,10.0,ENE,3.5,-,N/A,,Overcast,70,2013-02-26 10:24:00
5:56 AM,37.0,30.9,79,30.25,10.0,ENE,4.6,-,N/A,,Overcast,70,2013-02-26 10:56:00
7:39 AM,37.4,30.2,75,30.26,10.0,ENE,5.8,-,N/A,,Overcast,70,2013-02-26 12:39:00
7:56 AM,37.9,30.0,73,30.28,10.0,ENE,5.8,-,N/A,,Overcast,70,2013-02-26 12:56:00
8:51 AM,39.2,30.2,70,30.28,10.0,East,6.9,-,N/A,,Overcast,90,2013-02-26 13:51:00
8:56 AM,39.0,30.0,70,30.29,10.0,East,6.9,-,N/A,,Overcast,90,2013-02-26 13:56:00
9:56 AM,41.0,30.9,67,30.28,10.0,East,8.1,-,N/A,,Overcast,100,2013-02-26 14:56:00
10:56 AM,41.0,30.9,67,30.29,10.0,ESE,9.2,-,N/A,,Overcast,120,2013-02-26 15:56:00
11:56 AM,39.9,32.0,73,30.29,10.0,SE,11.5,-,N/A,,Overcast,130,2013-02-26 16:56:00
12:56 PM,41.0,32.0,70,30.25,10.0,East,11.5,-,N/A,,Overcast,100,2013-02-26 17:56:00
1:56 PM,43.0,30.0,60,30.23,10.0,East,11.5,-,N/A,,Overcast,90,2013-02-26 18:56:00
2:56 PM,42.1,28.9,60,30.24,10.0,ESE,13.8,-,N/A,,Overcast,110,2013-02-26 19:56:00
3:56 PM,39.9,30.0,68,30.19,10.0,East,16.1,-,N/A,,Overcast,90,2013-02-26 20:56:00
4:56 PM,39.0,28.9,67,30.18,10.0,East,10.4,18.4,N/A,,Overcast,100,2013-02-26 21:56:00
5:56 PM,37.9,28.0,68,30.15,10.0,East,12.7,-,N/A,,Overcast,90,2013-02-26 22:56:00
6:56 PM,37.9,30.0,73,30.14,10.0,East,12.7,20.7,N/A,,Overcast,100,2013-02-26 23:56:00
7:56 PM,37.9,30.0,73,30.12,10.0,East,12.7,-,0.00,Rain,Light Rain,80,2013-02-27 00:56:00
8:56 PM,37.9,30.9,76,30.09,10.0,East,12.7,23.0,0.00,Rain,Light Rain,80,2013-02-27 01:56:00
9:56 PM,37.0,32.0,82,30.03,8.0,East,16.1,24.2,0.02,Rain,Light Rain,80,2013-02-27 02:56:00
10:56 PM,37.0,33.1,86,29.99,5.0,ENE,15.0,-,0.04,Rain,Light Rain,70,2013-02-27 03:56:00
11:56 PM,37.0,34.0,89,29.91,6.0,ENE,16.1,26.5,0.06,Rain,Light Rain,70,2013-02-27 04:56:00